Regional Weather Roundup
Issued by NWS

Home | Current Version | Previous Version | Graphics & Text | Print | Product List | Glossary On
Versions: 1 2 3 4 5 6 7 8 9 10 11 12 13 14 15 16 17 18 19 20 21 22 23 24 25 26 27 28 29 30 31 32 33 34 35 36 37 38 39 40 41 42 43 44 45 46 47 48 49 50
000
ASUS43 KDMX 060308
RWRIA

WEATHER ROUNDUP FOR IOWA
NATIONAL WEATHER SERVICE DES MOINES IA
900 PM CST FRI FEB 05 2016

NOTE: "FAIR" INDICATES FEW OR NO CLOUDS BELOW 12,000 FEET WITH NO
SIGNIFICANT WEATHER AND/OR OBSTRUCTIONS TO VISIBILITY.

* - THESE STATIONS ARE NOT NWS STATIONS...THUS NOT UNDER NWS
QUALITY CONTROL.  THEY ALSO DO NOT REPORT WEATHER SUCH
AS PRECIPITATION OR FOG.

IAZ001>003-012>014-020>022-031>034-043>046-060400-
   NORTHWEST IOWA

CITY           SKY/WX    TMP DP  RH WIND       PRES   REMARKS
CARROLL *      CLOUDY    28  28 100 S9        30.22F WCI  20
CHEROKEE *     CLOUDY    27  27  99 SW6       30.21S FOG     WCI  20
DENISON *      CLOUDY    28  28 100 SW5       30.21R FOG     WCI  23
LE MARS *      CLOUDY    27  27 100 S3        30.23S FOG
ORANGE CITY *  MOCLDY    25  25 100 CALM      30.20S FOG
SHELDON *      CLOUDY    27  27 100 W7        30.19S FOG     WCI  19
SIOUX CITY     CLOUDY    29  25  85 CALM      30.23R FOG
SPENCER        CLOUDY    26  23  88 SW6       30.20S FOG     WCI  19
STORM LAKE *   CLOUDY    28  28 100 SW12      30.20S FOG     WCI  18
$$

IAZ055>058-069>071-079>083-090>094-060400-
   SOUTHWEST IOWA

CITY           SKY/WX    TMP DP  RH WIND       PRES   REMARKS
ATLANTIC *     CLOUDY    30  28  93 S9        30.24S WCI  22
AUDUBON *      CLOUDY    30  27  86 S7        30.24R FOG     WCI  23
CLARINDA *     FOG       25  25 100 CALM      30.28S VSB<1/4
COUNCIL BLFS * MOCLDY    30  30 100 S7        30.23S FOG     WCI  23
CRESTON *      CLOUDY    27  25  93 S8        30.26S WCI  18
HARLAN  *      CLOUDY    30  28  93 S13       30.26S FOG     WCI  20
LAMONI         CLOUDY    30  26  85 S7        30.26F WCI  23
RED OAK *      CLOUDY    27  28 100 CALM      30.25F FOG
SHENANDOAH *   CLOUDY    27  28 100 CALM      30.27S FOG
$$

IAZ047>049-059>061-072>074-084-060400-
   CENTRAL IOWA

CITY           SKY/WX    TMP DP  RH WIND       PRES   REMARKS
AMES           CLOUDY    27  24  89 S7        30.26F WCI  19
ANKENY *       CLOUDY    28  27  93 S7        30.27F WCI  21
BOONE *        CLOUDY    27  25  93 S9        30.23F WCI  17
CHARITON *     CLOUDY    30  27  86 S9        30.27F WCI  22
DES MOINES     FLURRIES  30  24  78 S9        30.27F WCI  22
GRINNELL*      CLOUDY    28  23  83 S7        30.28F WCI  21
KNOXVILLE *    CLOUDY    30  23  74 S7        30.27F WCI  23
MARSHALLTOWN   CLOUDY    26  23  88 S9        30.26F WCI  17
NEWTON *       CLOUDY    28  27  93 S7        30.27F WCI  21
PELLA *        CLOUDY    30  23  73 S5        30.30S WCI  25
$$

IAZ004>006-015-016-023>025-035-036-060400-
   NORTH CENTRAL IOWA

CITY           SKY/WX    TMP DP  RH WIND       PRES   REMARKS
ALGONA *       CLOUDY    27  25  93 S10       30.21S WCI  17
CLARION *      CLOUDY    25  23  93 S14       30.23R WCI  13
ESTHERVILLE    CLOUDY    26  24  92 SW13      30.19S FOG     WCI  15
FORT DODGE *   CLOUDY    27  23  86 S12       30.23R WCI  16
MASON CITY     CLOUDY    23  21  92 S15       30.23F WCI  10
FOREST CITY *  CLOUDY    23  23 100 S10       30.21F WCI  12
WEBSTER CITY * CLOUDY    27  25  93 S13       30.21F WCI  16
IOWA FALLS *   CLOUDY    26  24  92 S10       30.25S WCI  16
$$

IAZ007>011-017>019-026>030-037>042-050>054-066-060400-
   NORTHEAST IOWA

CITY           SKY/WX    TMP DP  RH WIND       PRES   REMARKS
CEDAR RAPIDS   CLOUDY    27  23  85 S6        30.29S WCI  20
CHARLES CITY * CLOUDY    23  23 100 S12       30.25F WCI  12
CLINTON *      CLOUDY    27  22  81 SW3       30.33S
DECORAH *      CLOUDY    23  19  86 S7        30.24F WCI  15
DUBUQUE        CLOUDY    26  21  81 S9        30.28F WCI  17
MONTICELLO *   CLOUDY    28  23  80 CALM      30.30S
OELWEIN *      CLOUDY    25  23  93 SW8       30.27S WCI  16
WATERLOO       CLOUDY    25  21  85 S9        30.28F WCI  15
$$

IAZ064-065-067-068-078-060400-
   EAST CENTRAL IOWA

CITY           SKY/WX    TMP DP  RH WIND       PRES   REMARKS
DAVENPORT      PTCLDY    27  20  75 S5        30.32F WCI  22
IOWA CITY      CLOUDY    26  21  81 SE6       30.32F WCI  19
MT. PLEASANT * CLOUDY    31  25  78 SE6       30.32S WCI  25
MUSCATINE *    CLOUDY    28  23  80 CALM      30.33F
QUAD CITIES    CLOUDY    28  20  71 CALM      30.33S
$$

IAZ062-063-075>077-085>089-095>099-060400-
   SOUTHEAST IOWA

CITY           SKY/WX    TMP DP  RH WIND       PRES   REMARKS
BURLINGTON     MOCLDY    26  21  81 CALM      30.32F
FAIRFIELD *    CLOUDY    28  21  74 S5        30.30F WCI  23
FORT MADISON * CLOUDY    28  21  74 CALM      30.33S
KEOKUK *       CLOUDY    27  23  86 SE5       30.32S WCI  21
OSKALOOSA *    CLOUDY    29  23  78 S6        30.30S WCI  23
CENTERVILLE *    N/A    N/A N/A N/A MISG        N/A
OTTUMWA        CLOUDY    30  22  72 S6        30.29F WCI  24
WASHINGTON *   CLOUDY    27  25  93 S3        30.32F
$$

ABBREVIATIONS USED IN REMARKS
   TC - TEMPERATURES IN CELSIUS
  WCI - WIND CHILL INDEX
   HX - HEAT INDEX
  VSB - VISIBILITY
$$




USA.gov is the U.S. government's official web portal to all federal, state and local government web resources and services.